Hourly Data Report for October 16, 2016

All times are specified in Local Standard Time (LST). Add 1 hour to adjust for Daylight Saving Time where and when it is observed.

CHARLOTTETOWN A
PRINCE EDWARD ISLAND

46°17'21.000" N
63°07'09.000" W
48.50 m
8300301
71706
YYG

Download Data

Hourly Data (October 2016)
Hourly Data Report for October 16, 2016
Temp Definition
°C
Dew Point Temp Definition
°C
Rel Hum Definition
%
Wind Dir Definition
10's deg

Wind Spd Definition
km/h
Visibility Definition
km
Stn Press Definition
kPa
Hmdx Definition


Wind Chill Definition


Weather Definition


TIME
00:00 Legend Double Dagger -0.1 -1.1 93 18 3 24.1 102.02   -1 LegendNANA
01:00 Legend Double Dagger 0.1 -1.4 90 36 2 24.1 102.00     LegendNANA
02:00 Legend Double Dagger -0.2 -1.2 93 0 1 24.1 101.94   -1 Mostly Cloudy
03:00 Legend Double Dagger -0.5 -1.4 94 36 1 24.1 101.84   -1 LegendNANA
04:00 Legend Double Dagger 0.9 0.2 95 13 5 24.1 101.77     LegendNANA
05:00 Legend Double Dagger 0.4 -0.3 95 12 4 24.1 101.73     Mainly Clear
06:00 Legend Double Dagger 2.4 1.7 95 16 8 24.1 101.69     LegendNANA
07:00 Legend Double Dagger 4.0 2.5 90 21 9 24.1 101.67     LegendNANA
08:00 Legend Double Dagger 6.9 3.4 78 20 12 24.1 101.63     Mostly Cloudy
09:00 Legend Double Dagger 9.3 4.1 70 21 17 24.1 101.58     LegendNANA
10:00 Legend Double Dagger 10.3 4.1 65 21 23 24.1 101.46     LegendNANA
11:00 Legend Double Dagger 11.0 3.8 61 21 22 24.1 101.36     Mostly Cloudy
12:00 Legend Double Dagger 11.1 4.1 62 20 31 24.1 101.21     LegendNANA
13:00 Legend Double Dagger 12.2 3.2 54 20 30 24.1 101.04     LegendNANA
14:00 Legend Double Dagger 12.7 2.6 50 19 36 24.1 100.84     Mostly Cloudy
15:00 Legend Double Dagger 13.8 1.8 44 20 38 24.1 100.75     LegendNANA
16:00 Legend Double Dagger 13.6 3.4 50 22 22 24.1 100.74     LegendNANA
17:00 Legend Double Dagger 12.9 4.1 55 22 23 24.1 100.62     Mostly Cloudy
18:00 Legend Double Dagger 11.7 5.4 65 22 22 24.1 100.53     LegendNANA
19:00 Legend Double Dagger 12.3 6.2 66 21 30 24.1 100.48     LegendNANA
20:00 Legend Double Dagger 12.1 8.0 76 22 25 24.1 100.43     Mostly Cloudy
21:00 Legend Double Dagger 12.5 7.8 73 22 30 24.1 100.35     LegendNANA
22:00 Legend Double Dagger 12.6 8.5 76 22 30 24.1 100.31     LegendNANA
23:00 Legend Double Dagger 12.6 9.3 80 22 22 24.1 100.27     Cloudy

Notes on Data Quality.

Legend

  • E = Estimated
  • M = Missing
  • NA = Not Available
  • ‡ = Partner data that is not subject to review by the National Climate Archives
Date modified: